Temp
11 12 11 10 10 11 11 11 11 11 10 10 10 10 10 10 11 11 11 11 11 11 11 11 11 11 11 11 11 10 10 10 10 10 10 10 9 9 9 8 9 8 8 8 8 8 8 8 8 8 8 8 8 8 7 7 7 7 7 7 7 7 7 7 7 7 7 7 7 7 7 7 7 7 7 7 7 7 7 8 8 8 8 8 8
11 12 11 11 10 11 11 11 11 11 10 10 10 10 10 10 10 11 11 11 11 11 11 11 11 11 11 11 10 10 10 10 10 10 10 9 9 9 9 8 8 8 8 8 8 8 8 8 8 8 8 8 8 8 7 7 7 7 7 7 7 7 7 7 7 7 7 7 7 7 7 7 7 7 7 7 7 7 7 7 8 8 8 8 8
11 12 11 11 10 11 11 11 11 10 10 10 10 10 10 10 10 11 11 11 11 11 11 11 11 11 11 11 10 10 10 10 10 10 9 9 9 9 8 8 8 8 8 8 8 8 8 8 8 8 8 8 8 8 7 7 7 7 7 7 7 7 7 7 7 7 7 7 7 7 7 7 7 7 7 7 7 7 7 7 8 8 8 8 8
11 11 11 10 10 11 11 10 10 10 10 10 10 10 10 10 10 10 11 11 11 11 11 11 11 11 11 10 10 10 10 10 10 9 9 9 9 9 9 8 8 8 8 8 8 8 8 8 8 8 8 8 8 8 7 7 7 7 7 7 7 7 7 7 7 7 7 7 7 7 7 7 7 7 7 7 7 7 7 7 7 7 8 8 8
11 11 10 10 10 10 10 10 10 9 9 10 10 10 10 10 10 10 10 11 11 11 11 11 11 11 10 10 10 10 10 10 10 9 9 9 9 9 8 8 8 8 8 8 8 7 8 8 8 8 8 8 8 8 7 7 7 7 7 7 7 7 7 7 7 7 7 7 7 7 7 7 7 7 7 7 7 7 7 7 7 7 7 8 8
11 11 10 10 10 10 10 9 9 9 9 9 10 10 10 10 10 10 10 10 11 11 11 11 11 10 10 10 10 10 10 10 10 9 9 9 9 9 8 8 8 8 8 8 7 7 7 7 7 7 7 7 7 8 7 7 7 7 7 7 7 7 7 7 7 7 7 7 7 7 7 7 7 7 7 7 7 7 7 7 7 7 7 7 8
11 11 10 10 9 10 9 9 9 9 9 9 9 10 10 10 10 10 10 10 10 10 10 10 10 10 10 10 10 10 10 10 9 9 9 9 9 9 8 8 8 8 8 7 7 7 7 7 7 7 7 7 7 7 7 7 7 7 7 7 7 7 7 7 7 7 7 7 7 7 7 7 7 7 7 7 7 7 7 7 7 7 7 7 7
11 11 10 10 9 10 10 9 9 9 9 9 9 10 10 10 10 10 10 10 10 10 10 10 10 10 10 10 10 9 9 9 9 9 9 9 9 9 8 8 8 8 8 7 7 7 7 7 7 7 7 7 7 7 7 7 7 7 7 7 7 7 7 7 7 7 7 7 7 7 7 7 7 7 7 7 7 7 7 7 7 7 7 7 7
11 11 10 10 9 10 10 9 9 9 9 9 9 9 10 10 10 10 10 10 10 10 10 10 10 10 10 9 9 9 9 9 9 9 9 9 9 8 8 8 8 7 7 7 7 7 7 7 7 7 7 7 7 7 7 7 7 7 7 7 7 7 7 7 7 7 7 7 7 7 7 7 7 7 7 7 7 7 7 7 7 7 7 7 7
10 10 10 9 9 9 9 9 9 9 9 9 9 9 9 9 10 10 10 10 10 10 10 9 9 9 9 9 9 9 9 9 9 9 9 9 9 8 8 7 7 7 7 7 7 7 7 7 7 7 7 7 7 7 7 7 7 7 7 7 7 7 7 7 7 7 7 7 7 7 7 7 7 7 7 7 7 7 7 7 7 7 7 7 7
10 9 9 8 8 9 9 9 9 9 9 9 9 9 9 9 9 9 9 9 9 9 9 9 9 9 9 9 9 9 9 9 8 8 8 8 8 8 8 7 7 7 7 7 7 7 7 7 7 7 7 7 7 7 7 7 7 7 7 7 7 7 7 7 7 7 7 7 7 7 7 7 7 7 7 7 7 7 7 7 7 7 7 7 7
9 9 9 8 8 9 9 9 9 8 8 9 9 9 9 9 9 9 9 9 9 9 9 9 9 9 9 9 9 8 8 8 8 8 8 8 8 8 8 7 7 7 7 7 7 7 7 7 7 7 7 7 7 7 7 7 7 7 7 7 7 7 7 7 7 7 7 7 7 7 7 7 7 7 7 7 7 7 7 7 7 7 7 7 7
9 9 8 8 8 9 9 9 8 8 8 8 8 8 8 8 8 8 8 9 9 9 9 9 9 9 9 9 8 8 8 8 8 7 7 7 7 7 7 7 6 6 6 7 7 7 7 7 6 7 7 7 7 7 7 7 7 7 7 7 7 7 7 7 7 7 7 7 7 7 7 7 7 7 7 7 7 7 7 7 7 7 7 7 7
8 8 8 8 8 8 9 9 8 8 8 8 8 8 8 8 8 8 8 8 8 9 9 9 9 9 8 8 8 8 8 8 7 7 7 7 7 7 7 6 6 6 6 6 6 6 6 6 6 6 7 7 7 7 7 7 7 7 7 7 7 7 7 7 7 7 7 7 7 7 7 7 7 7 7 7 7 7 7 7 7 7 7 7 7
8 7 8 8 8 8 8 8 8 8 8 8 8 8 8 8 8 8 8 8 8 9 9 9 9 8 8 8 8 8 7 7 7 6 6 6 6 7 7 6 5 5 5 6 6 6 6 6 6 6 6 6 7 7 7 7 7 7 7 7 7 7 7 7 7 7 7 7 7 7 7 7 7 7 7 7 7 7 7 7 7 7 7 7 7
7 7 7 8 8 8 8 8 8 8 8 7 7 7 7 7 8 8 8 8 8 9 9 8 8 8 8 8 7 7 7 7 6 6 6 6 6 6 6 6 5 5 5 5 5 6 6 6 6 6 6 6 6 6 7 7 7 7 7 7 7 7 7 7 7 7 7 7 7 7 7 7 7 7 7 7 7 7 7 7 7 7 7 7 7
7 7 7 7 8 8 8 8 8 8 7 7 7 7 7 7 7 8 8 8 8 8 8 8 8 8 8 7 7 7 7 6 6 6 6 6 6 6 6 5 5 5 5 5 5 5 6 6 6 6 6 6 6 6 6 7 7 7 7 7 7 7 7 7 7 7 7 7 7 7 7 7 7 7 7 7 7 7 7 7 7 7 7 7 7
7 7 7 7 8 8 8 8 8 7 7 7 7 7 7 7 7 7 8 8 8 8 8 8 8 8 7 7 7 7 6 6 6 5 5 5 5 5 5 5 5 5 5 5 5 5 5 6 6 6 6 6 6 6 6 6 7 7 7 7 7 7 7 7 7 7 7 7 7 7 7 7 7 7 7 7 7 7 7 7 7 7 7 7 7
7 7 7 8 8 8 7 7 7 7 7 6 6 6 6 7 7 7 7 7 7 7 8 8 7 7 7 7 6 6 6 5 5 5 5 5 5 5 5 5 5 5 5 5 5 5 5 5 6 6 6 6 6 6 6 6 6 7 7 7 7 7 7 7 7 7 7 7 7 7 7 7 7 7 7 7 7 7 7 7 7 7 7 7 7
7 7 7 7 7 7 7 7 7 6 6 6 6 6 6 7 7 7 7 7 7 7 7 7 7 7 6 6 6 6 5 5 5 5 5 5 5 5 5 5 5 5 5 5 5 6 6 6 6 6 6 6 6 6 6 6 6 6 7 7 7 7 7 7 7 7 7 7 7 7 7 7 7 7 7 7 7 7 7 7 7 7 7 7 7
7 7 7 7 7 6 6 7 6 7 6 6 6 6 6 7 7 7 7 7 7 7 7 7 7 7 6 6 6 5 5 5 5 5 5 5 5 5 5 5 5 5 5 5 5 5 5 6 6 6 6 5 6 6 6 6 6 6 6 7 7 7 7 7 7 7 7 7 7 7 7 7 7 7 7 7 7 7 7 7 7 7 7 7 7
7 6 6 6 6 6 6 7 7 7 7 6 6 6 6 6 7 7 7 7 7 7 7 7 7 6 6 6 5 5 5 4 4 4 4 4 5 5 5 5 5 5 5 5 5 5 5 5 5 5 5 5 5 5 6 6 6 6 6 6 7 7 7 7 7 7 7 7 7 7 7 7 7 7 7 7 7 7 7 7 7 7 7 7 7
6 6 7 6 6 6 6 6 6 6 6 6 6 6 6 6 6 6 6 7 7 7 7 7 6 6 6 5 5 5 4 4 4 4 4 4 5 5 5 5 5 5 5 5 5 5 5 5 5 5 5 5 5 5 5 5 5 6 6 6 6 6 7 7 7 7 7 7 7 7 7 7 7 7 7 7 7 7 7 7 7 7 7 7 7
6 6 7 6 6 6 5 5 6 6 6 6 6 6 6 6 6 6 6 6 6 6 6 6 6 5 5 5 5 5 4 4 4 4 4 5 5 5 5 5 5 5 4 4 5 5 5 5 5 5 5 5 5 5 5 5 5 5 6 6 6 6 6 7 7 7 7 7 7 7 7 7 7 7 7 7 7 7 7 7 7 7 7 7 7
6 6 5 6 6 6 6 6 6 6 6 6 6 6 6 6 6 6 6 6 6 6 6 6 5 5 5 5 5 4 4 4 4 4 4 5 5 5 5 4 4 4 4 4 4 5 5 5 5 5 5 5 5 5 5 5 5 5 5 6 6 6 6 6 6 6 7 7 7 7 7 7 7 7 7 7 7 7 7 7 7 7 7 7 7
6 5 5 5 6 6 6 6 6 6 6 6 6 6 6 6 6 6 6 6 6 6 6 5 5 5 5 5 4 4 4 4 4 4 4 4 4 4 4 4 4 4 4 4 4 4 4 5 5 5 5 5 5 5 5 5 5 5 5 5 5 5 6 6 6 6 6 7 7 7 7 7 7 7 7 7 7 7 7 7 7 7 7 7 7
5 5 5 5 5 5 6 6 6 6 6 6 6 6 6 6 6 6 6 5 5 5 5 5 5 5 5 4 4 4 4 4 4 4 4 4 4 4 4 4 4 4 4 4 4 4 4 4 4 5 5 5 5 5 5 5 5 5 5 5 5 5 5 5 6 6 6 6 6 7 6 6 6 6 7 7 7 7 7 7 7 7 7 7 7
5 5 5 5 5 5 5 5 5 6 6 6 6 6 6 6 6 6 6 6 5 5 5 5 5 5 4 4 4 4 4 4 4 4 4 4 4 4 4 4 4 4 4 4 4 4 4 4 4 4 4 4 5 5 5 5 5 5 5 5 5 5 5 5 5 6 6 6 6 6 6 6 6 6 6 6 6 6 7 7 7 7 7 7 7
5 5 5 5 5 5 6 6 5 6 6 6 6 6 6 6 6 6 6 6 5 5 5 4 4 4 4 4 4 4 4 4 4 4 4 4 4 4 4 4 4 4 4 4 4 4 4 4 4 4 4 4 4 4 4 5 4 4 4 4 5 5 4 4 5 5 5 5 6 6 6 6 6 6 6 6 6 6 6 6 6 6 6 6 6
4 4 5 5 5 6 6 6 5 6 6 7 7 7 7 6 6 6 6 6 5 5 4 4 4 4 4 4 4 4 4 4 4 4 4 4 4 4 4 4 4 4 4 4 4 4 4 4 4 4 4 4 3 3 4 4 4 4 4 4 4 4 4 4 4 4 5 5 5 5 5 6 6 6 6 6 6 6 6 6 6 6 6 6 6
4 4 5 5 5 6 6 6 6 6 7 7 7 6 6 6 6 6 6 5 5 5 4 4 4 4 4 4 4 4 4 4 4 4 4 4 4 4 4 4 4 4 4 4 4 4 4 4 4 4 4 3 3 3 3 3 4 4 4 4 4 4 4 4 4 4 4 4 5 5 5 5 5 5 5 5 5 5 5 6 6 6 6 6 6
5 5 5 5 5 6 6 6 6 7 7 6 6 6 6 6 6 6 6 6 5 5 4 4 4 4 4 4 4 4 4 4 4 3 3 4 4 4 4 4 4 4 4 4 4 4 4 4 4 4 3 3 3 3 3 3 3 4 4 4 4 4 4 4 4 4 4 4 4 4 4 4 5 5 5 5 5 5 5 5 5 5 5 6 6
5 5 6 5 6 6 6 6 6 6 6 6 6 6 6 6 6 6 6 6 5 5 4 4 4 4 4 4 4 4 4 4 3 3 3 3 3 4 3 3 3 3 3 3 3 3 3 3 3 3 3 3 3 3 3 3 3 3 3 4 4 4 4 4 4 4 4 4 4 4 4 4 4 4 4 4 4 5 5 5 5 5 5 5 5
5 6 6 6 6 6 5 5 6 6 6 6 6 6 6 6 6 6 6 6 5 5 4 4 4 4 4 4 4 3 3 3 3 3 3 3 3 3 3 3 3 3 3 3 3 3 3 3 3 3 3 3 3 3 3 3 3 3 3 3 3 4 4 4 4 3 4 4 4 4 4 3 3 4 4 4 4 4 4 4 4 5 5 5 5
5 5 6 5 5 5 5 6 6 6 6 6 6 6 6 6 6 6 6 6 5 5 4 4 4 4 4 4 4 3 3 3 3 3 3 3 3 3 3 3 3 3 3 3 3 3 3 3 3 3 3 3 3 3 3 3 3 3 3 3 3 3 3 3 3 3 3 3 4 4 3 3 3 3 3 4 4 4 4 4 4 4 4 4 5
5 5 6 5 5 6 6 6 6 6 6 6 6 6 6 6 6 6 6 6 5 5 5 4 4 4 3 3 3 3 3 3 3 3 3 3 3 3 3 3 3 3 3 3 3 3 3 3 3 3 3 3 3 3 3 3 3 3 3 3 3 3 3 3 3 3 3 3 3 3 3 3 3 3 3 3 4 4 4 4 4 4 4 4 4
5 5 5 5 6 6 6 6 6 5 5 5 5 5 5 5 5 5 5 5 5 5 5 4 4 4 3 3 3 3 3 3 3 3 3 3 3 3 3 3 3 3 3 3 3 3 3 3 3 3 3 3 3 3 3 3 3 3 3 2 2 2 3 3 3 3 3 2 2 3 3 3 3 2 3 3 3 3 4 4 4 4 4 4 4
5 5 5 5 6 6 6 6 6 5 5 5 5 5 5 5 5 5 5 5 5 5 5 4 4 4 3 3 3 3 3 3 3 3 3 3 3 3 3 3 3 3 3 3 3 3 3 3 3 3 3 3 3 3 3 3 3 3 2 2 2 2 2 3 3 3 2 2 2 2 2 2 2 2 2 2 3 3 3 3 3 4 4 4 4
5 5 5 5 6 6 6 6 6 5 5 5 5 5 5 5 5 5 5 5 5 5 5 5 4 4 4 3 3 3 3 3 3 3 3 3 3 3 3 3 3 2 2 3 3 3 3 3 3 3 3 3 3 3 3 3 3 3 2 2 3 3 2 3 3 3 2 2 2 2 2 2 2 2 2 2 2 2 3 3 3 3 4 4 4
5 5 5 5 5 6 6 6 6 5 5 5 5 5 5 5 5 5 5 5 5 5 5 5 4 4 4 3 3 3 3 3 3 3 3 3 3 3 2 2 3 3 3 3 3 3 3 3 3 3 3 3 3 3 3 3 3 3 3 2 2 3 3 3 3 3 2 2 2 1 1 2 2 2 2 2 2 2 2 3 3 3 3 4 4
5 5 5 5 5 6 6 6 6 5 5 5 5 4 5 5 5 5 5 5 5 5 5 5 4 4 4 3 3 3 3 3 2 2 2 2 2 2 2 2 2 3 3 3 3 3 3 3 3 3 3 3 3 3 3 3 3 2 2 2 2 2 2 2 3 3 2 2 2 1 1 2 2 2 2 2 2 2 2 3 3 3 3 3 4
5 5 5 5 5 5 6 6 5 5 5 5 5 5 4 4 4 4 5 5 5 5 5 5 4 4 3 3 3 3 3 3 2 2 2 2 2 2 3 3 3 3 3 3 3 3 3 3 3 3 3 3 3 3 3 3 3 2 2 2 2 2 2 2 2 3 2 2 2 1 1 1 2 2 2 2 2 2 2 2 2 2 3 3 3
5 5 5 5 5 5 6 6 5 5 5 5 5 5 4 4 4 4 4 4 5 5 5 5 4 4 4 4 3 3 3 3 2 2 2 2 2 2 3 3 3 3 3 3 3 3 3 3 3 3 3 3 3 3 3 3 3 2 2 2 2 2 2 2 2 2 2 2 2 1 1 1 1 1 1 2 2 2 2 2 2 2 2 2 3
5 5 5 5 5 6 6 6 5 5 5 5 5 4 4 4 4 4 4 4 4 5 5 5 4 4 4 4 4 3 3 3 2 2 2 2 2 2 2 2 3 3 3 3 3 3 3 3 3 3 3 3 3 3 3 3 3 2 2 2 2 2 2 2 2 2 2 2 2 1 1 1 1 1 1 1 1 2 2 2 2 2 2 2 2
6 5 5 5 5 6 6 5 5 5 5 5 4 4 4 4 4 4 4 4 4 4 4 5 5 4 4 4 4 3 3 3 2 2 2 2 2 2 2 2 2 2 2 2 2 2 3 3 3 3 3 3 3 3 3 2 2 2 2 2 2 2 2 2 2 2 2 2 2 2 1 1 1 1 1 1 1 1 1 1 2 2 2 2 2
6 5 5 5 5 5 5 5 5 5 4 4 4 4 4 4 4 4 4 4 4 4 4 4 4 4 4 3 3 3 3 3 3 2 2 2 2 2 2 2 2 2 2 2 2 2 2 3 3 3 3 3 3 3 2 2 2 2 2 2 2 2 2 2 2 2 2 2 2 2 2 2 1 1 1 1 1 1 2 1 2 2 2 2 2
6 5 5 5 5 5 5 5 5 4 4 4 4 4 3 3 3 4 4 4 4 4 4 4 4 4 3 3 3 3 3 3 3 2 2 2 2 2 2 2 2 2 2 2 2 2 2 2 2 3 3 3 3 2 2 2 2 2 2 2 2 2 2 2 2 2 2 2 2 2 2 2 2 2 1 1 1 1 2 2 2 2 2 2 2
5 5 5 5 5 5 5 5 4 4 4 4 4 3 3 3 3 3 4 4 4 4 4 4 4 3 3 3 3 3 3 3 3 3 2 2 2 2 2 2 2 2 2 2 2 2 2 2 2 2 3 3 2 2 2 2 2 1 1 1 2 2 2 2 2 2 2 2 2 2 2 2 2 1 1 1 1 1 1 1 1 1 1 2 2
5 5 5 5 5 5 4 4 4 4 4 3 3 3 3 3 3 3 3 3 3 3 3 4 3 3 3 3 3 3 3 3 3 2 2 2 2 2 2 2 2 2 2 2 2 2 2 2 2 2 2 2 2 2 2 2 1 1 1 1 1 2 2 2 2 2 1 1 1 1 1 1 1 1 1 1 1 1 1 1 1 1 1 2 2
5 5 5 5 4 4 4 4 4 3 3 3 3 3 3 3 3 3 3 3 3 3 3 3 3 3 3 3 3 3 3 2 2 2 2 2 2 2 2 2 2 2 2 2 2 2 2 2 2 2 2 2 2 2 2 2 2 1 1 1 1 1 2 2 2 2 2 1 1 1 1 1 1 1 1 1 1 1 1 1 1 1 1 1 1
5 4 4 4 4 3 3 3 3 3 3 3 3 3 3 3 3 3 2 2 3 3 3 3 3 3 3 3 2 2 2 2 2 2 2 2 2 2 2 2 2 2 2 2 2 2 2 2 2 2 2 2 2 2 2 2 2 2 2 2 2 2 2 2 2 2 2 2 1 1 1 1 1 1 1 1 1 1 1 1 1 1 1 1 1
Height
3139 3139 3139 3141 3142 3142 3142 3143 3143 3144 3145 3145 3145 3146 3146 3147 3147 3148 3148 3149 3149 3149 3150 3150 3150 3150 3151 3151 3151 3151 3151 3151 3152 3152 3153 3153 3153 3154 3154 3155 3156 3156 3157 3158 3159 3160 3161 3162 3163 3163 3164 3164 3164 3165 3165 3166 3166 3167 3168 3169 3169 3170 3170 3170 3170 3170 3170 3171 3171 3171 3171 3170 3170 3169 3169 3168 3167 3166 3165 3165 3164 3164 3162 3161 3160
3139 3139 3140 3141 3142 3142 3142 3143 3143 3144 3144 3145 3145 3146 3146 3147 3147 3147 3148 3148 3149 3149 3150 3150 3150 3151 3151 3151 3152 3152 3152 3152 3152 3153 3153 3153 3154 3154 3155 3155 3156 3156 3157 3158 3159 3160 3161 3162 3163 3164 3164 3164 3165 3165 3166 3166 3167 3168 3169 3169 3170 3171 3171 3171 3171 3171 3171 3172 3172 3172 3172 3171 3171 3171 3170 3169 3168 3168 3167 3166 3166 3165 3164 3163 3162
3139 3140 3140 3140 3142 3142 3142 3142 3143 3143 3144 3144 3145 3145 3146 3146 3147 3147 3148 3148 3148 3149 3150 3150 3150 3151 3151 3151 3152 3152 3153 3152 3153 3153 3154 3154 3154 3154 3155 3155 3156 3157 3157 3158 3160 3161 3162 3163 3163 3164 3165 3165 3165 3166 3167 3167 3168 3169 3169 3170 3171 3171 3172 3172 3172 3172 3172 3173 3173 3173 3173 3173 3172 3172 3171 3171 3170 3169 3169 3168 3167 3166 3165 3165 3164
3138 3139 3139 3140 3141 3142 3142 3142 3142 3143 3143 3144 3144 3145 3146 3146 3147 3147 3148 3148 3148 3149 3150 3150 3150 3150 3151 3151 3152 3153 3153 3153 3153 3153 3154 3154 3154 3155 3155 3156 3156 3157 3158 3158 3160 3161 3162 3163 3163 3164 3165 3165 3166 3166 3167 3168 3168 3169 3170 3171 3171 3172 3172 3172 3173 3173 3173 3174 3174 3174 3174 3174 3173 3173 3172 3172 3172 3171 3170 3169 3169 3168 3167 3166 3165
3137 3138 3139 3139 3140 3141 3141 3141 3142 3142 3143 3144 3144 3145 3146 3146 3147 3147 3148 3148 3149 3149 3150 3150 3150 3150 3150 3151 3152 3153 3153 3153 3154 3154 3154 3154 3155 3155 3155 3156 3156 3157 3158 3158 3160 3161 3162 3163 3163 3164 3165 3165 3166 3166 3167 3168 3169 3169 3170 3171 3172 3172 3173 3173 3173 3174 3174 3175 3175 3176 3176 3175 3174 3174 3174 3174 3173 3172 3171 3171 3170 3169 3168 3168 3167
3137 3137 3138 3138 3139 3140 3140 3140 3141 3142 3143 3144 3145 3145 3146 3146 3147 3148 3148 3148 3149 3150 3150 3150 3150 3150 3151 3151 3152 3153 3154 3154 3154 3154 3154 3154 3155 3155 3155 3156 3156 3157 3157 3158 3159 3160 3162 3162 3162 3163 3165 3165 3166 3167 3167 3168 3169 3170 3171 3172 3172 3173 3174 3174 3174 3175 3175 3176 3176 3177 3177 3176 3176 3175 3175 3175 3175 3174 3173 3172 3172 3171 3170 3169 3168
3137 3137 3138 3138 3138 3138 3138 3139 3141 3142 3143 3144 3144 3145 3146 3147 3147 3148 3148 3149 3149 3149 3150 3150 3150 3150 3151 3151 3152 3153 3154 3154 3154 3154 3154 3154 3155 3155 3155 3155 3156 3157 3157 3158 3159 3160 3161 3161 3162 3163 3164 3165 3166 3167 3167 3168 3169 3170 3171 3172 3173 3174 3174 3174 3175 3175 3176 3177 3177 3177 3177 3177 3177 3176 3176 3176 3176 3175 3175 3174 3173 3173 3172 3171 3170
3136 3137 3137 3138 3138 3138 3138 3139 3141 3142 3143 3143 3144 3145 3146 3147 3147 3148 3149 3149 3149 3150 3150 3150 3150 3151 3151 3152 3153 3153 3153 3154 3154 3155 3155 3154 3154 3155 3155 3155 3156 3157 3157 3158 3159 3160 3160 3161 3162 3163 3164 3165 3166 3166 3167 3169 3169 3170 3171 3172 3173 3174 3175 3175 3175 3176 3177 3177 3178 3178 3178 3178 3178 3178 3177 3177 3177 3177 3176 3175 3175 3174 3173 3173 3172
3136 3136 3136 3137 3137 3137 3138 3139 3140 3141 3142 3143 3144 3145 3146 3147 3147 3148 3149 3149 3150 3150 3150 3150 3150 3151 3152 3152 3153 3153 3153 3154 3154 3155 3155 3155 3154 3154 3155 3155 3156 3157 3157 3158 3159 3159 3160 3161 3161 3162 3164 3165 3166 3166 3167 3169 3169 3170 3171 3172 3173 3174 3175 3175 3175 3176 3177 3178 3178 3179 3179 3179 3179 3179 3179 3178 3178 3178 3177 3177 3176 3176 3175 3174 3173
3136 3136 3136 3137 3138 3137 3137 3138 3140 3141 3142 3143 3144 3145 3146 3147 3148 3149 3149 3150 3150 3150 3150 3151 3151 3151 3152 3153 3153 3153 3153 3153 3154 3155 3155 3154 3154 3154 3154 3155 3155 3156 3157 3158 3159 3159 3160 3161 3161 3162 3163 3165 3166 3166 3167 3168 3169 3170 3171 3172 3173 3174 3176 3176 3176 3177 3178 3178 3179 3179 3180 3180 3180 3180 3180 3180 3179 3179 3179 3178 3178 3177 3176 3176 3175
3136 3136 3136 3138 3139 3139 3138 3138 3139 3141 3142 3143 3144 3145 3146 3147 3148 3149 3150 3151 3151 3151 3151 3151 3151 3152 3152 3153 3153 3153 3153 3153 3154 3154 3154 3154 3154 3154 3154 3155 3155 3156 3157 3158 3158 3159 3160 3161 3161 3162 3163 3164 3165 3166 3167 3168 3169 3170 3171 3172 3173 3175 3176 3176 3176 3177 3178 3179 3179 3180 3180 3181 3181 3181 3181 3181 3180 3180 3180 3180 3179 3179 3178 3177 3176
3134 3135 3136 3137 3140 3140 3139 3139 3140 3140 3142 3143 3144 3145 3146 3147 3149 3150 3151 3151 3151 3151 3151 3152 3152 3152 3152 3152 3152 3152 3153 3153 3153 3153 3154 3154 3154 3154 3154 3154 3155 3156 3157 3157 3158 3159 3160 3161 3161 3162 3163 3164 3165 3166 3167 3168 3169 3170 3171 3172 3173 3175 3175 3176 3177 3177 3178 3179 3179 3180 3181 3181 3182 3182 3182 3182 3181 3181 3181 3181 3180 3180 3179 3179 3178
3133 3135 3136 3136 3138 3139 3139 3139 3139 3140 3142 3142 3143 3145 3146 3148 3149 3151 3151 3151 3151 3151 3152 3152 3152 3152 3152 3152 3152 3152 3152 3152 3152 3153 3153 3153 3153 3154 3154 3154 3155 3156 3157 3157 3158 3159 3160 3160 3161 3161 3162 3163 3164 3165 3166 3167 3168 3169 3170 3172 3173 3175 3175 3176 3177 3177 3178 3179 3180 3180 3181 3181 3182 3182 3182 3182 3182 3182 3182 3182 3182 3181 3181 3180 3179
3133 3134 3136 3136 3137 3139 3139 3139 3139 3140 3141 3142 3144 3145 3147 3148 3150 3151 3151 3151 3152 3152 3152 3152 3152 3152 3152 3152 3152 3152 3152 3151 3152 3152 3152 3152 3153 3153 3154 3154 3155 3155 3156 3157 3158 3158 3159 3160 3160 3161 3162 3162 3163 3164 3165 3166 3167 3168 3169 3171 3173 3174 3175 3176 3176 3177 3178 3179 3180 3180 3181 3181 3182 3182 3183 3183 3183 3183 3183 3183 3183 3182 3182 3181 3181
3133 3134 3136 3137 3137 3137 3138 3139 3139 3141 3142 3143 3144 3145 3147 3149 3150 3151 3151 3152 3152 3152 3152 3152 3152 3152 3152 3152 3152 3152 3151 3151 3151 3151 3152 3152 3152 3153 3153 3154 3154 3155 3156 3157 3157 3158 3158 3159 3160 3160 3161 3161 3162 3163 3164 3164 3165 3167 3168 3170 3172 3174 3175 3175 3176 3177 3178 3179 3180 3180 3180 3181 3182 3182 3183 3183 3184 3183 3183 3183 3183 3183 3183 3182 3182
3133 3134 3136 3137 3137 3137 3138 3139 3141 3142 3142 3143 3144 3146 3148 3149 3150 3151 3151 3152 3152 3152 3152 3152 3152 3152 3152 3152 3152 3151 3151 3151 3151 3151 3151 3151 3152 3152 3153 3153 3154 3154 3155 3156 3157 3157 3158 3158 3159 3159 3160 3160 3161 3162 3163 3164 3164 3166 3167 3169 3171 3173 3174 3174 3175 3176 3177 3179 3179 3180 3180 3181 3182 3182 3183 3183 3184 3184 3184 3184 3184 3184 3184 3183 3183
3132 3133 3135 3136 3137 3137 3138 3140 3142 3143 3142 3143 3145 3146 3148 3149 3150 3151 3151 3151 3152 3152 3151 3151 3151 3152 3152 3151 3151 3151 3151 3151 3151 3151 3151 3151 3151 3152 3152 3152 3153 3153 3154 3155 3156 3157 3157 3158 3159 3159 3159 3159 3160 3161 3162 3163 3163 3164 3166 3168 3170 3172 3173 3174 3174 3176 3177 3178 3179 3179 3180 3181 3181 3182 3183 3183 3184 3184 3184 3184 3184 3184 3184 3184 3184
3131 3133 3135 3136 3136 3137 3138 3140 3142 3142 3142 3144 3145 3147 3148 3149 3150 3150 3151 3151 3151 3151 3151 3151 3151 3151 3151 3151 3151 3151 3150 3150 3150 3150 3150 3150 3151 3151 3152 3152 3152 3153 3153 3154 3155 3156 3157 3157 3158 3158 3159 3159 3159 3160 3161 3162 3162 3163 3165 3167 3170 3171 3172 3173 3174 3175 3176 3177 3178 3179 3179 3180 3181 3182 3182 3183 3183 3184 3184 3184 3185 3185 3185 3184 3184
3131 3133 3135 3135 3135 3137 3138 3140 3141 3142 3143 3145 3146 3147 3148 3148 3149 3150 3150 3150 3150 3150 3150 3150 3151 3151 3151 3150 3150 3150 3150 3150 3150 3150 3150 3150 3150 3151 3151 3152 3152 3153 3153 3154 3154 3155 3155 3156 3156 3157 3158 3158 3159 3159 3160 3160 3161 3162 3163 3166 3169 3170 3171 3172 3173 3174 3175 3176 3177 3178 3179 3180 3180 3181 3182 3182 3183 3184 3184 3184 3184 3185 3185 3185 3185
3131 3132 3134 3134 3135 3136 3138 3140 3141 3142 3144 3145 3146 3147 3148 3148 3149 3149 3150 3150 3150 3150 3150 3150 3150 3150 3150 3150 3150 3149 3149 3149 3149 3149 3149 3150 3150 3151 3151 3152 3152 3153 3153 3153 3153 3154 3154 3154 3155 3156 3156 3157 3157 3158 3158 3159 3159 3161 3162 3164 3167 3169 3170 3171 3172 3173 3174 3175 3176 3177 3178 3179 3180 3180 3181 3182 3183 3183 3184 3184 3184 3184 3185 3185 3185
3129 3130 3132 3133 3134 3136 3138 3140 3142 3143 3144 3145 3146 3147 3147 3148 3148 3149 3149 3150 3150 3150 3150 3150 3150 3150 3150 3149 3149 3149 3149 3148 3148 3149 3149 3149 3150 3151 3151 3152 3152 3152 3152 3153 3153 3153 3153 3153 3154 3155 3155 3156 3156 3157 3157 3158 3158 3159 3161 3163 3166 3167 3168 3170 3171 3172 3173 3174 3175 3176 3177 3178 3179 3180 3180 3181 3182 3182 3183 3183 3184 3184 3184 3185 3185
3128 3129 3130 3131 3133 3134 3137 3140 3142 3143 3144 3145 3146 3147 3147 3148 3148 3149 3149 3149 3149 3149 3149 3149 3149 3149 3149 3148 3148 3148 3148 3147 3148 3148 3148 3149 3150 3151 3151 3151 3152 3152 3152 3152 3152 3152 3152 3153 3154 3154 3155 3155 3155 3155 3156 3157 3157 3158 3160 3161 3164 3166 3167 3168 3170 3171 3172 3173 3174 3175 3176 3177 3178 3179 3180 3180 3181 3182 3182 3183 3183 3184 3184 3184 3184
3127 3127 3128 3129 3130 3133 3135 3138 3141 3142 3144 3145 3146 3146 3147 3147 3148 3148 3149 3149 3149 3149 3149 3149 3148 3148 3148 3147 3147 3147 3147 3146 3147 3147 3148 3149 3150 3150 3151 3151 3151 3151 3151 3151 3151 3151 3152 3152 3153 3153 3153 3153 3153 3154 3155 3155 3156 3157 3158 3159 3161 3164 3165 3166 3168 3169 3170 3172 3173 3174 3175 3176 3177 3178 3179 3179 3180 3181 3181 3182 3182 3183 3183 3184 3184
3123 3124 3126 3128 3130 3134 3136 3138 3140 3142 3143 3144 3146 3146 3147 3147 3148 3148 3149 3149 3149 3149 3149 3148 3148 3147 3147 3146 3146 3146 3146 3146 3146 3147 3148 3149 3150 3150 3150 3151 3151 3151 3151 3151 3151 3151 3151 3151 3151 3151 3152 3152 3152 3153 3153 3154 3154 3155 3156 3157 3159 3161 3163 3164 3166 3168 3169 3170 3172 3173 3174 3175 3176 3177 3178 3178 3179 3180 3180 3181 3181 3182 3182 3183 3183
3121 3123 3126 3129 3133 3136 3137 3139 3140 3142 3143 3144 3145 3146 3147 3147 3148 3148 3148 3149 3148 3148 3148 3148 3147 3147 3146 3146 3146 3145 3145 3146 3146 3146 3148 3149 3150 3150 3150 3151 3151 3151 3151 3151 3151 3151 3151 3150 3150 3150 3151 3151 3151 3152 3152 3153 3153 3154 3155 3156 3157 3159 3161 3162 3164 3166 3168 3169 3170 3171 3172 3173 3174 3175 3176 3177 3177 3178 3179 3180 3180 3181 3181 3182 3183
3122 3125 3128 3130 3134 3137 3137 3139 3141 3142 3143 3144 3145 3146 3147 3147 3147 3148 3148 3148 3148 3148 3147 3147 3147 3146 3146 3145 3145 3145 3145 3145 3146 3146 3148 3149 3150 3150 3150 3151 3151 3151 3151 3151 3151 3151 3150 3150 3150 3150 3150 3150 3151 3151 3151 3151 3152 3153 3153 3154 3155 3157 3159 3161 3162 3164 3166 3168 3169 3169 3170 3171 3172 3174 3175 3176 3176 3177 3178 3179 3179 3180 3180 3181 3182
3123 3126 3129 3132 3134 3135 3136 3139 3141 3143 3144 3145 3146 3146 3147 3147 3147 3147 3147 3147 3147 3147 3147 3146 3146 3146 3145 3145 3144 3144 3144 3145 3146 3147 3148 3149 3149 3150 3150 3151 3151 3151 3151 3151 3151 3150 3150 3149 3149 3149 3149 3150 3150 3150 3150 3150 3151 3152 3153 3153 3154 3156 3158 3159 3161 3162 3164 3166 3167 3168 3168 3169 3171 3172 3173 3174 3175 3175 3176 3177 3178 3178 3179 3180 3180
3123 3127 3130 3132 3134 3134 3136 3139 3142 3143 3144 3145 3145 3146 3146 3146 3146 3146 3146 3146 3146 3146 3146 3145 3145 3145 3145 3144 3144 3144 3145 3145 3146 3147 3148 3148 3148 3149 3149 3150 3150 3150 3150 3150 3150 3149 3149 3149 3149 3149 3149 3149 3149 3149 3149 3150 3150 3151 3151 3152 3153 3154 3156 3157 3159 3161 3162 3164 3165 3166 3167 3168 3169 3170 3171 3172 3173 3174 3175 3176 3176 3177 3178 3178 3179
3126 3128 3129 3131 3134 3135 3137 3138 3141 3143 3144 3144 3145 3145 3145 3146 3146 3146 3145 3145 3145 3145 3145 3144 3144 3144 3144 3144 3143 3143 3144 3145 3146 3146 3147 3147 3147 3147 3148 3148 3149 3149 3149 3149 3148 3148 3148 3148 3148 3148 3148 3149 3149 3149 3149 3149 3149 3150 3150 3151 3151 3152 3154 3156 3157 3159 3160 3162 3163 3164 3165 3166 3167 3168 3169 3170 3171 3172 3173 3174 3175 3176 3176 3177 3178
3129 3129 3129 3131 3135 3137 3138 3138 3140 3143 3143 3144 3144 3144 3145 3145 3145 3145 3145 3144 3144 3144 3144 3143 3143 3143 3143 3143 3143 3143 3144 3144 3144 3145 3145 3145 3145 3146 3146 3147 3147 3147 3147 3147 3147 3147 3147 3147 3147 3147 3148 3148 3148 3148 3149 3149 3149 3149 3149 3150 3150 3151 3152 3154 3155 3156 3158 3160 3161 3163 3164 3164 3165 3166 3167 3169 3170 3170 3171 3172 3173 3174 3175 3176 3176
3130 3130 3130 3132 3136 3138 3138 3139 3141 3142 3142 3143 3144 3144 3144 3145 3145 3144 3144 3144 3143 3143 3142 3142 3142 3142 3142 3142 3142 3142 3143 3143 3144 3144 3144 3144 3144 3144 3145 3145 3146 3146 3146 3146 3146 3145 3146 3146 3146 3147 3147 3147 3147 3148 3148 3148 3148 3149 3149 3149 3150 3150 3151 3152 3153 3154 3156 3157 3159 3161 3162 3163 3164 3165 3165 3166 3168 3169 3170 3171 3171 3172 3173 3174 3175
3129 3131 3132 3133 3135 3138 3139 3140 3140 3141 3142 3143 3143 3144 3144 3144 3144 3144 3143 3143 3142 3142 3141 3141 3141 3141 3141 3141 3141 3141 3141 3142 3143 3143 3143 3143 3142 3143 3144 3144 3145 3145 3146 3145 3145 3145 3145 3145 3146 3146 3146 3146 3147 3147 3147 3148 3148 3148 3149 3149 3150 3150 3150 3150 3151 3153 3154 3155 3157 3159 3160 3161 3162 3163 3164 3165 3166 3167 3168 3169 3170 3170 3171 3172 3173
3130 3131 3133 3134 3135 3137 3139 3140 3140 3141 3142 3143 3143 3144 3144 3144 3143 3143 3142 3142 3141 3140 3140 3140 3140 3140 3140 3140 3140 3140 3140 3141 3141 3141 3141 3141 3141 3142 3143 3144 3144 3145 3145 3145 3145 3144 3145 3145 3145 3145 3146 3146 3146 3146 3146 3147 3147 3148 3148 3149 3149 3149 3149 3149 3150 3151 3152 3153 3155 3156 3158 3159 3160 3162 3163 3164 3164 3165 3166 3167 3168 3168 3169 3170 3171
3130 3131 3133 3134 3136 3137 3138 3139 3140 3141 3141 3142 3143 3143 3144 3144 3143 3143 3142 3141 3140 3139 3139 3139 3139 3139 3138 3139 3139 3139 3139 3140 3140 3140 3140 3140 3141 3141 3142 3143 3144 3144 3145 3145 3145 3144 3145 3145 3145 3145 3145 3145 3145 3146 3146 3146 3146 3147 3147 3148 3149 3149 3149 3149 3149 3150 3151 3152 3153 3155 3156 3157 3158 3160 3161 3162 3163 3163 3164 3165 3166 3167 3168 3168 3169
3130 3132 3133 3134 3135 3136 3136 3138 3139 3140 3141 3142 3142 3143 3143 3143 3143 3142 3141 3140 3139 3138 3137 3137 3137 3137 3137 3137 3137 3137 3138 3138 3138 3138 3139 3139 3140 3140 3141 3142 3143 3143 3144 3144 3144 3144 3145 3145 3145 3145 3144 3144 3145 3145 3145 3145 3145 3146 3146 3146 3147 3148 3148 3149 3149 3149 3150 3151 3152 3153 3155 3155 3156 3158 3159 3160 3161 3162 3163 3164 3164 3165 3166 3167 3168
3131 3132 3133 3134 3135 3136 3136 3137 3138 3139 3140 3141 3142 3143 3143 3143 3143 3142 3141 3140 3139 3137 3136 3136 3135 3135 3136 3136 3136 3136 3136 3137 3137 3137 3137 3138 3138 3139 3140 3141 3142 3142 3142 3143 3144 3144 3144 3144 3144 3144 3144 3144 3144 3145 3145 3145 3145 3145 3145 3145 3146 3146 3147 3148 3148 3148 3149 3149 3151 3152 3153 3154 3155 3156 3157 3159 3160 3161 3161 3162 3163 3164 3165 3165 3166
3130 3132 3132 3134 3136 3136 3137 3137 3137 3138 3139 3140 3141 3142 3142 3142 3142 3142 3141 3140 3138 3137 3135 3134 3134 3134 3134 3135 3135 3134 3135 3135 3135 3135 3135 3136 3136 3137 3138 3139 3140 3141 3141 3142 3143 3143 3143 3143 3144 3144 3143 3143 3143 3144 3144 3144 3144 3144 3144 3144 3144 3145 3146 3146 3147 3147 3148 3148 3149 3150 3151 3152 3153 3154 3156 3157 3158 3159 3160 3161 3162 3163 3163 3164 3164
3129 3131 3132 3134 3136 3137 3137 3137 3136 3137 3138 3139 3140 3141 3142 3142 3142 3141 3140 3139 3138 3136 3134 3133 3132 3132 3132 3133 3133 3133 3133 3133 3133 3133 3134 3134 3135 3136 3136 3137 3138 3139 3139 3140 3141 3142 3142 3142 3143 3143 3143 3142 3142 3143 3143 3143 3143 3144 3144 3143 3143 3143 3144 3145 3146 3146 3147 3147 3148 3149 3149 3151 3152 3153 3154 3156 3157 3158 3158 3160 3161 3162 3162 3162 3163
3128 3130 3132 3134 3136 3137 3137 3137 3136 3137 3138 3138 3139 3140 3141 3141 3141 3140 3140 3138 3137 3135 3133 3131 3131 3130 3131 3131 3131 3132 3132 3132 3132 3132 3132 3133 3133 3134 3135 3135 3136 3137 3138 3139 3140 3140 3141 3141 3141 3142 3142 3142 3142 3142 3142 3142 3142 3143 3143 3143 3142 3142 3143 3143 3144 3144 3145 3146 3147 3147 3148 3149 3150 3152 3153 3154 3155 3156 3157 3158 3159 3160 3161 3161 3161
3128 3129 3130 3133 3136 3137 3137 3136 3136 3136 3137 3137 3138 3139 3139 3140 3140 3139 3139 3138 3136 3135 3133 3131 3129 3129 3129 3130 3130 3130 3131 3131 3131 3131 3131 3132 3132 3133 3133 3133 3134 3135 3136 3137 3138 3139 3139 3139 3140 3140 3141 3141 3141 3141 3141 3141 3141 3141 3141 3142 3141 3141 3141 3142 3142 3142 3142 3144 3145 3146 3147 3148 3149 3150 3151 3152 3153 3154 3155 3156 3157 3158 3159 3160 3160
3127 3128 3129 3131 3134 3136 3136 3135 3135 3135 3136 3136 3137 3138 3138 3139 3138 3138 3138 3137 3136 3135 3133 3131 3129 3128 3128 3129 3129 3130 3130 3130 3130 3130 3130 3130 3130 3131 3131 3131 3132 3133 3134 3136 3136 3137 3137 3137 3138 3139 3140 3140 3139 3139 3139 3139 3139 3139 3140 3140 3140 3140 3140 3140 3141 3140 3141 3142 3143 3144 3145 3146 3147 3148 3149 3150 3151 3152 3153 3154 3155 3155 3156 3158 3158
3126 3127 3129 3130 3133 3134 3134 3134 3134 3134 3135 3135 3136 3137 3137 3137 3137 3137 3137 3137 3136 3135 3134 3132 3130 3129 3128 3128 3129 3129 3129 3129 3128 3128 3129 3129 3129 3129 3129 3129 3129 3130 3132 3133 3134 3135 3135 3135 3136 3137 3137 3137 3137 3137 3137 3137 3137 3137 3138 3138 3139 3139 3139 3139 3139 3140 3140 3140 3142 3142 3143 3144 3146 3146 3147 3148 3149 3151 3152 3152 3153 3153 3154 3155 3156
3126 3127 3128 3129 3131 3133 3132 3132 3132 3133 3134 3134 3135 3136 3136 3136 3136 3136 3136 3136 3136 3135 3134 3133 3131 3130 3128 3128 3128 3129 3128 3128 3128 3127 3127 3127 3128 3127 3127 3127 3128 3128 3129 3130 3131 3132 3132 3132 3133 3134 3134 3135 3135 3136 3136 3136 3136 3136 3136 3137 3138 3138 3138 3139 3139 3138 3138 3139 3140 3141 3141 3143 3144 3145 3145 3146 3147 3148 3149 3150 3151 3151 3152 3152 3153
3125 3125 3126 3127 3129 3131 3131 3131 3131 3132 3133 3134 3134 3135 3135 3135 3136 3135 3135 3135 3135 3135 3134 3133 3132 3130 3129 3128 3127 3128 3128 3128 3128 3127 3127 3126 3126 3126 3126 3126 3126 3126 3127 3128 3128 3129 3130 3130 3130 3131 3132 3132 3133 3133 3134 3134 3134 3134 3135 3136 3136 3137 3137 3138 3138 3137 3137 3137 3138 3139 3140 3141 3142 3143 3144 3145 3145 3146 3148 3148 3149 3150 3150 3149 3150
3123 3124 3125 3126 3128 3129 3130 3130 3131 3132 3133 3133 3134 3134 3135 3136 3136 3136 3136 3135 3135 3134 3133 3132 3131 3130 3129 3128 3127 3127 3128 3128 3128 3128 3127 3126 3125 3125 3125 3124 3124 3124 3125 3126 3126 3127 3127 3128 3128 3129 3130 3130 3130 3131 3131 3132 3132 3133 3134 3135 3135 3136 3136 3136 3136 3136 3136 3136 3137 3137 3138 3139 3140 3141 3142 3143 3144 3145 3146 3147 3148 3149 3149 3149 3149
3121 3123 3124 3125 3126 3128 3128 3129 3130 3131 3132 3133 3134 3134 3135 3136 3136 3137 3137 3136 3136 3135 3134 3132 3131 3130 3129 3128 3128 3127 3127 3127 3127 3127 3127 3126 3125 3125 3125 3124 3124 3124 3123 3124 3125 3126 3126 3126 3126 3127 3128 3128 3129 3129 3130 3130 3130 3131 3132 3133 3134 3134 3135 3135 3135 3135 3135 3136 3136 3136 3137 3138 3139 3139 3140 3142 3142 3143 3144 3145 3145 3145 3146 3147 3148
3120 3121 3122 3123 3124 3126 3127 3128 3129 3130 3132 3133 3133 3134 3135 3136 3136 3137 3137 3136 3136 3135 3134 3133 3132 3130 3129 3128 3128 3127 3127 3127 3127 3127 3126 3126 3125 3125 3125 3125 3124 3124 3124 3124 3124 3125 3125 3125 3125 3125 3126 3126 3127 3127 3128 3128 3129 3130 3131 3132 3132 3133 3134 3134 3134 3134 3134 3135 3135 3135 3135 3136 3137 3138 3139 3140 3140 3141 3142 3142 3142 3142 3143 3144 3145
3119 3119 3120 3121 3123 3124 3125 3127 3128 3130 3131 3132 3133 3133 3134 3135 3135 3136 3136 3136 3136 3136 3135 3134 3133 3131 3130 3129 3128 3127 3127 3127 3127 3127 3126 3126 3125 3125 3125 3125 3125 3124 3124 3124 3124 3124 3125 3125 3125 3125 3125 3125 3126 3126 3126 3127 3128 3129 3129 3130 3131 3132 3132 3133 3133 3134 3134 3134 3134 3134 3134 3135 3136 3137 3137 3138 3138 3139 3140 3140 3141 3142 3141 3142 3143
3117 3118 3119 3120 3121 3122 3124 3125 3127 3129 3130 3131 3132 3133 3133 3134 3134 3134 3134 3134 3135 3135 3135 3134 3133 3132 3131 3130 3128 3127 3127 3127 3127 3127 3126 3126 3125 3125 3125 3125 3125 3125 3124 3124 3124 3124 3125 3125 3125 3125 3125 3125 3125 3125 3126 3126 3127 3128 3128 3129 3130 3131 3131 3132 3132 3133 3133 3134 3133 3133 3134 3134 3134 3134 3135 3136 3137 3137 3138 3139 3139 3139 3139 3141 3142
3116 3116 3117 3118 3118 3119 3121 3124 3126 3129 3130 3131 3131 3132 3132 3133 3133 3133 3133 3133 3134 3134 3135 3134 3134 3133 3132 3130 3129 3128 3127 3127 3127 3127 3126 3126 3125 3125 3125 3125 3125 3125 3125 3125 3125 3125 3125 3125 3125 3125 3125 3125 3125 3125 3125 3126 3126 3127 3127 3128 3129 3129 3130 3130 3131 3132 3132 3133 3133 3133 3133 3133 3132 3133 3134 3135 3135 3135 3135 3136 3136 3136 3137 3139 3141
3114 3115 3113 3111 3110 3113 3118 3122 3126 3129 3130 3130 3130 3131 3131 3132 3132 3132 3133 3133 3133 3133 3134 3134 3134 3133 3132 3131 3129 3128 3128 3128 3128 3127 3126 3126 3125 3125 3125 3125 3125 3125 3125 3125 3125 3125 3125 3125 3125 3125 3125 3125 3125 3125 3125 3125 3126 3126 3127 3127 3128 3128 3129 3129 3130 3130 3131 3132 3132 3132 3132 3132 3132 3132 3133 3133 3133 3134 3134 3134 3134 3134 3136 3137 3138
Wind_Speed
15 14 14 13 12 11 11 10 9 8 7 7 7 6 6 6 7 7 7 7 6 7 7 6 5 5 4 4 3 3 2 1 1 1 1 1 2 5 8 10 12 16 19 22 24 24 23 22 21 20 21 20 19 18 17 18 18 18 17 15 14 13 14 15 17 17 17 16 16 17 17 18 20 21 22 23 23 24 24 24 25 26 29 31 31
13 14 14 13 12 12 11 10 9 8 8 8 7 7 7 7 7 8 7 7 7 7 7 7 6 6 5 4 4 3 3 2 1 1 1 1 3 5 9 11 12 15 19 22 24 24 23 22 21 21 21 21 20 19 18 19 18 18 17 15 14 13 13 15 16 16 15 14 14 15 16 18 20 21 22 23 24 24 25 25 24 25 28 30 32
13 12 13 13 12 12 11 10 9 9 9 8 8 8 8 8 8 7 7 7 7 7 7 6 6 6 6 5 4 4 3 2 1 1 1 2 3 6 9 11 13 16 19 22 24 25 24 23 22 21 21 21 20 19 18 19 18 17 16 15 14 13 13 15 15 14 14 13 12 13 15 18 20 21 21 22 23 24 25 25 25 25 27 28 30
14 12 12 13 13 13 12 11 10 10 9 9 9 8 8 8 8 8 7 7 7 7 7 6 6 6 6 5 4 4 3 2 2 2 2 2 4 6 9 12 13 16 18 22 24 25 25 23 22 22 22 21 21 20 19 19 18 17 16 15 14 13 13 14 14 13 13 12 11 12 14 16 18 20 21 21 22 23 25 25 26 26 26 27 28
14 13 12 13 14 14 13 12 11 11 10 10 9 9 8 8 8 8 8 7 7 7 7 7 7 7 6 6 5 4 3 3 2 2 2 3 5 7 9 12 14 16 19 21 24 25 25 24 23 23 22 22 21 20 19 19 19 18 17 15 14 13 13 14 14 12 11 11 10 11 12 14 17 20 20 20 21 22 24 26 26 27 26 26 27
14 13 13 14 15 15 14 13 13 12 11 10 9 9 9 9 8 8 7 8 7 7 7 7 7 7 7 6 6 5 4 3 3 3 3 4 5 7 10 12 15 16 19 21 24 25 25 25 24 23 23 22 22 21 20 19 19 18 17 15 14 13 13 13 13 11 10 10 9 9 10 13 15 18 20 19 20 21 23 25 26 27 27 27 26
14 13 13 14 15 16 15 14 13 12 11 10 10 10 9 9 8 8 8 8 8 8 8 8 8 7 7 6 5 5 5 4 4 4 4 4 5 7 10 13 15 17 19 21 24 25 26 26 25 24 24 23 23 22 21 20 19 18 18 16 15 14 13 12 12 10 9 9 8 7 8 11 13 16 19 18 19 20 21 23 24 26 27 27 26
15 14 14 16 16 17 16 13 12 12 11 11 10 9 9 9 8 8 8 8 8 8 8 8 8 7 6 6 5 5 5 5 5 5 4 5 5 7 10 13 15 17 19 21 24 26 26 26 26 25 24 24 23 23 22 21 20 19 18 17 16 14 13 11 11 10 8 8 7 6 7 9 12 14 17 18 18 19 20 21 22 24 26 27 26
14 14 15 17 18 18 16 14 13 12 12 11 10 9 9 8 8 8 8 8 8 8 8 8 7 7 6 6 5 6 6 6 6 6 5 5 6 8 10 12 16 17 19 21 23 25 26 26 26 25 25 24 24 23 22 22 21 20 19 18 17 15 14 12 10 10 8 7 7 5 5 8 11 13 14 17 17 18 19 20 21 22 24 25 26
12 13 15 17 18 18 16 14 12 12 12 11 10 9 9 8 8 8 8 8 8 8 7 7 7 7 6 6 6 6 7 7 6 7 7 7 8 9 11 13 16 18 19 20 22 24 26 26 25 25 25 24 24 24 23 23 22 21 20 19 18 16 15 13 11 10 9 7 6 5 4 6 10 12 13 15 16 17 18 19 20 21 22 24 25
12 14 14 15 15 14 13 12 12 12 12 11 10 9 8 8 8 8 8 7 7 7 7 7 7 6 6 7 7 7 7 7 7 8 8 9 9 10 11 13 15 18 20 20 21 23 25 25 25 25 24 24 24 24 24 23 22 22 21 20 18 17 16 15 13 10 9 7 6 5 3 4 8 11 12 13 15 16 17 18 19 20 21 22 23
13 15 16 16 15 12 11 11 12 12 12 11 9 8 7 7 7 7 7 7 7 7 7 7 6 7 7 7 7 7 7 8 8 9 9 10 10 10 12 13 14 16 19 21 21 22 23 24 25 25 24 24 24 24 24 24 23 23 22 21 19 18 17 16 14 12 10 8 7 5 4 3 5 9 11 12 13 14 15 16 17 19 20 21 22
13 15 17 18 18 15 12 12 11 12 11 10 8 8 7 7 7 7 7 7 7 7 6 6 7 7 7 7 7 7 8 8 9 9 9 10 11 11 12 13 13 15 18 20 21 21 22 23 24 25 25 24 24 24 24 24 24 24 23 22 21 19 18 17 16 14 12 10 8 7 5 3 3 6 8 9 11 13 14 14 15 17 18 20 20
12 14 17 18 19 17 13 12 10 10 10 8 7 7 7 7 6 6 6 7 7 6 6 6 6 6 6 6 7 7 8 8 8 8 9 9 11 11 12 13 13 14 16 18 20 21 22 23 24 24 25 25 25 24 24 25 25 25 24 23 22 21 20 19 18 16 14 12 10 9 7 6 3 3 5 7 8 11 12 12 13 14 16 18 18
10 14 17 17 17 15 12 10 8 8 8 8 8 7 7 6 6 7 7 7 7 6 6 6 6 6 6 6 7 7 7 7 7 7 8 9 10 11 12 13 14 15 16 17 19 21 22 23 23 24 25 26 26 25 25 25 25 26 25 24 23 22 21 20 19 17 15 14 12 10 9 8 5 3 3 4 6 8 10 11 11 12 14 15 16
12 16 17 16 15 12 11 9 8 8 9 9 8 7 7 7 7 7 7 7 6 6 6 6 6 6 6 6 6 6 6 6 6 7 7 8 10 11 12 14 15 16 16 17 18 20 22 23 23 24 24 25 26 26 26 25 26 26 26 25 24 23 22 21 21 19 17 15 14 13 11 10 7 4 2 2 4 6 8 9 10 11 12 13 14
14 17 17 18 16 13 12 11 12 12 10 10 9 8 8 8 8 7 7 6 5 6 6 6 6 6 6 7 7 6 7 7 7 6 7 8 10 11 13 14 15 16 17 17 18 19 20 22 22 23 24 25 26 26 26 26 27 27 26 26 24 24 23 23 22 21 19 17 16 15 13 12 9 6 4 1 2 3 5 7 9 10 10 11 12
15 17 18 18 17 15 14 14 14 12 10 10 9 9 9 8 7 6 6 5 5 5 6 6 6 6 6 7 7 7 8 8 8 8 8 9 10 12 13 13 14 14 15 16 17 18 19 20 21 22 23 24 25 26 26 27 28 28 27 26 25 24 24 24 23 22 21 19 18 17 15 14 11 8 6 4 3 3 4 5 6 8 9 9 10
18 20 19 17 17 15 14 13 11 10 9 9 9 9 9 7 6 5 5 5 5 6 6 6 6 6 6 7 7 8 9 9 9 9 10 10 11 12 12 12 13 13 13 14 15 17 18 20 21 21 22 24 25 25 26 27 29 29 29 27 25 25 25 25 24 24 23 21 19 18 17 15 13 11 9 7 6 5 4 4 5 6 7 8 8
19 20 20 18 16 13 12 11 10 9 8 8 8 8 6 5 5 5 5 5 5 6 6 6 6 6 7 8 8 9 10 10 10 11 11 12 12 13 13 13 13 13 13 13 13 14 16 17 19 21 22 24 25 26 26 27 29 30 30 28 27 26 26 26 25 25 24 23 21 20 19 17 16 13 11 10 9 7 6 5 5 4 5 6 6
21 21 20 18 16 15 12 9 8 7 7 8 7 6 4 4 5 5 5 5 6 6 6 5 6 7 8 9 10 11 11 11 12 12 12 13 14 14 14 15 14 14 13 13 13 12 13 14 15 17 20 22 25 26 26 27 28 29 29 29 28 27 27 26 26 26 25 24 23 22 21 20 18 16 15 13 11 10 9 7 6 4 3 4 5
23 23 21 19 18 17 14 10 8 7 7 7 6 5 4 5 5 6 5 5 6 6 6 7 8 9 10 10 11 12 12 13 12 13 13 13 14 14 14 15 15 14 14 13 12 12 12 12 13 14 16 19 22 25 26 27 28 29 29 30 29 29 29 28 27 27 26 26 24 23 22 21 20 19 17 16 14 12 11 9 8 6 4 3 3
23 24 23 22 21 20 18 15 12 10 8 7 6 5 5 5 6 5 5 5 6 7 8 8 9 10 11 12 13 13 14 14 13 13 13 13 13 13 13 14 14 14 13 13 12 12 12 11 11 12 14 16 19 22 24 26 27 29 30 31 30 30 30 29 28 28 27 27 26 24 23 23 22 21 20 18 17 15 13 12 10 8 6 4 3
25 26 24 22 21 19 18 16 13 10 7 6 5 5 5 5 5 5 5 6 7 8 9 10 10 11 12 13 14 15 15 15 14 14 13 13 13 13 13 13 13 13 12 12 12 12 11 11 10 11 11 12 15 19 22 24 26 28 30 31 32 30 30 30 29 29 28 28 27 25 24 24 23 22 21 20 19 17 16 14 12 10 8 6 4
24 22 19 18 16 15 14 13 11 8 6 5 4 4 5 5 6 7 7 7 9 9 10 11 11 12 13 14 15 15 15 15 15 15 14 13 12 11 12 13 12 12 12 12 10 10 10 10 10 10 10 9 11 15 19 22 24 26 28 30 32 31 30 30 30 30 29 29 28 27 26 25 24 23 22 21 20 19 18 16 14 12 10 8 7
17 14 15 18 16 14 12 10 7 5 3 3 3 4 5 6 7 8 8 8 9 10 11 12 13 14 14 14 15 16 16 15 15 14 13 11 10 10 11 12 12 12 12 10 9 9 9 10 9 9 9 8 8 11 15 18 21 23 25 28 30 30 29 29 29 29 29 29 29 28 27 26 25 24 23 22 21 20 19 18 16 14 12 10 9
14 15 19 18 17 16 13 9 6 3 2 2 3 4 5 6 7 8 9 10 11 12 13 13 14 14 14 14 15 16 16 15 13 11 10 9 9 10 10 11 11 11 11 9 9 9 10 9 9 9 9 8 7 8 11 14 17 20 23 25 26 28 29 28 28 28 28 29 29 29 28 27 26 25 24 23 22 20 20 19 17 16 15 13 11
17 19 23 19 17 18 16 13 8 5 2 4 3 4 5 7 8 9 11 11 13 14 14 14 15 14 14 14 15 16 15 14 11 9 8 8 9 10 10 10 10 10 10 9 10 11 10 10 9 9 8 7 6 6 8 11 14 16 19 21 23 25 26 27 27 27 27 27 28 29 28 27 26 25 24 24 23 22 21 20 19 17 16 14 13
18 20 22 22 20 20 18 16 9 4 4 4 3 3 5 6 8 10 11 12 13 14 15 15 15 15 15 15 15 15 14 13 13 11 10 10 10 10 11 10 10 10 10 10 11 12 12 11 10 9 8 8 6 5 6 9 12 14 16 18 20 23 24 25 25 25 26 26 27 28 28 27 26 25 24 24 23 22 21 20 20 18 17 15 14
19 21 19 22 23 19 15 13 6 5 5 4 3 2 4 5 7 9 11 12 14 14 15 15 16 16 15 15 15 14 13 13 13 12 11 11 11 11 11 11 12 12 12 12 12 12 13 12 11 9 9 8 7 5 5 7 10 12 14 16 18 20 22 23 24 24 25 26 26 26 26 26 26 25 24 23 22 22 21 20 20 19 17 16 15
19 20 13 19 23 15 11 8 5 6 5 4 3 1 2 4 6 8 10 12 13 14 15 15 15 15 15 14 14 14 13 13 13 13 12 12 12 12 12 12 13 12 13 13 13 13 14 13 12 11 10 9 9 6 6 7 8 10 11 13 15 18 20 22 23 24 25 25 25 25 24 25 24 24 23 22 22 20 20 19 19 18 17 17 16
19 18 15 20 20 14 9 7 6 6 5 5 3 1 1 3 5 7 9 11 12 13 14 14 14 14 14 14 14 14 13 12 13 13 13 14 14 14 13 13 13 13 13 14 14 14 14 13 12 12 11 11 11 9 8 8 9 9 9 10 11 14 18 21 23 24 25 25 25 24 24 23 22 22 21 21 21 20 19 19 19 19 18 17 17
20 20 20 20 17 15 11 8 8 7 6 6 5 3 3 3 5 6 8 9 11 13 14 14 13 13 14 14 14 14 13 12 13 13 14 15 16 15 14 13 14 13 13 14 14 15 14 13 13 13 13 13 12 11 10 9 9 9 9 8 9 12 15 20 22 23 24 25 25 25 24 23 21 21 21 20 20 20 19 18 18 19 18 17 17
21 21 20 18 17 17 13 11 11 10 8 7 6 5 5 6 7 8 9 9 11 12 13 14 13 13 14 14 14 14 13 12 13 14 15 16 16 15 14 14 14 14 13 14 15 15 14 13 13 14 15 15 14 12 11 11 10 10 10 9 9 10 13 16 19 21 23 24 26 24 22 22 21 20 20 20 21 20 19 17 17 17 17 17 17
21 18 17 17 16 16 14 15 13 11 9 7 6 6 5 6 8 10 11 11 11 12 13 13 13 13 13 13 14 14 13 13 14 15 15 16 16 16 15 14 14 14 13 14 15 15 15 14 14 15 16 17 15 13 12 12 11 11 11 10 9 9 10 11 14 17 20 22 24 23 21 20 21 20 19 19 20 21 20 18 17 17 16 16 16
17 14 15 14 12 13 15 15 13 11 8 7 6 5 5 6 8 10 12 12 12 11 11 12 12 12 12 12 13 14 14 13 14 15 16 16 17 16 15 14 14 14 14 14 14 14 14 14 14 15 16 17 16 13 12 12 13 13 12 11 10 9 9 9 9 12 15 17 20 22 22 21 21 20 20 19 19 20 20 19 18 17 16 16 16
13 14 14 11 10 14 16 15 13 10 8 6 5 4 5 6 7 10 12 13 13 12 10 10 11 12 12 12 13 14 14 14 15 16 16 17 16 16 14 13 13 13 13 14 14 14 13 13 14 15 16 16 16 15 13 13 14 13 13 12 11 10 10 9 9 11 13 15 16 19 22 23 21 21 21 20 19 19 19 18 18 17 17 16 16
14 15 14 11 12 16 15 13 12 10 8 6 4 4 4 5 7 9 12 14 15 13 11 9 10 11 12 13 14 15 15 14 15 16 17 17 16 15 14 13 13 13 13 13 13 13 13 13 13 14 16 16 16 15 14 14 15 14 13 14 14 12 11 10 10 12 12 13 14 17 19 21 21 21 21 21 20 19 18 17 16 17 17 17 16
17 15 15 14 15 18 16 12 11 9 8 6 4 3 4 5 7 10 12 15 16 16 13 11 9 9 10 11 13 15 16 15 16 16 17 17 16 16 14 14 14 14 14 13 12 12 13 14 14 14 15 15 15 15 15 16 16 15 14 15 16 13 12 12 11 13 13 11 12 15 17 19 20 20 20 20 20 20 19 17 16 16 16 17 16
20 17 17 18 20 20 16 12 11 9 7 5 4 3 3 5 8 11 13 15 17 18 16 14 12 9 8 8 9 12 14 16 17 17 17 17 17 16 15 15 15 14 13 12 11 12 12 13 13 13 14 14 15 16 16 16 17 16 15 15 15 13 13 14 12 13 13 11 12 13 15 17 18 19 20 20 20 20 19 18 17 16 16 16 16
20 21 19 20 23 21 16 12 10 8 7 6 4 3 2 4 8 10 13 15 17 18 17 15 13 11 8 7 6 7 10 13 16 18 18 18 18 17 17 17 17 16 15 13 12 12 12 13 13 12 12 13 15 16 16 16 16 16 15 15 14 13 14 14 13 13 13 12 14 14 14 16 16 17 19 20 20 19 18 18 17 17 17 17 17
17 20 19 22 25 22 17 13 10 9 8 6 5 2 1 5 8 10 12 14 16 17 17 15 13 10 8 7 6 6 7 9 12 14 16 18 18 19 19 20 20 19 17 16 14 13 13 13 14 13 13 13 14 15 15 16 16 16 15 15 14 14 14 13 13 13 13 14 15 16 16 16 16 17 18 19 19 19 18 17 16 16 16 16 18
17 19 20 24 26 23 17 14 12 10 8 7 4 2 2 4 7 9 12 14 15 17 17 15 13 11 9 7 5 5 6 7 9 11 12 14 15 17 19 19 20 19 18 16 15 13 13 14 14 14 14 14 15 14 14 15 16 16 15 15 14 14 13 13 13 13 14 14 14 16 18 16 15 17 18 17 17 18 18 18 17 16 16 16 16
19 21 22 25 25 22 17 14 13 12 10 7 5 2 1 4 6 9 11 13 15 16 17 16 14 13 11 10 8 6 5 5 6 8 9 10 11 13 14 16 17 18 17 15 15 14 14 14 14 14 15 15 16 15 16 16 16 16 15 14 14 13 13 13 13 13 14 14 13 15 17 17 16 17 18 16 15 16 18 18 17 16 16 15 14
19 21 24 25 24 21 17 14 14 13 11 8 5 2 0 3 5 8 10 12 14 16 17 17 16 14 12 10 9 7 6 5 5 6 7 8 8 8 9 11 13 14 14 13 13 13 13 14 15 15 16 16 17 17 17 16 16 16 15 15 14 13 14 14 14 14 14 13 12 13 16 17 18 19 19 17 16 18 18 18 16 15 15 15 14
18 20 22 24 23 21 17 15 15 15 12 9 7 4 2 1 3 6 9 11 12 14 15 15 15 14 11 9 8 8 6 6 6 6 6 6 6 6 6 6 8 9 10 10 10 10 11 12 14 15 15 16 16 16 16 17 16 16 15 15 14 14 14 14 14 15 14 12 11 11 13 16 18 19 19 18 19 20 21 21 20 19 20 20 19
17 19 21 23 22 21 18 17 17 16 13 11 8 5 3 2 3 5 7 9 10 12 13 13 13 12 9 8 8 7 7 5 5 6 6 6 5 5 4 4 4 6 7 7 8 8 8 9 10 12 12 13 14 14 15 15 15 15 14 14 13 13 14 14 14 14 14 13 11 10 11 12 15 17 18 18 19 21 23 24 24 23 24 24 23
16 19 21 23 23 22 21 20 19 18 15 12 9 7 5 5 5 4 6 8 9 11 11 11 12 10 8 7 7 6 6 5 4 3 4 5 5 4 3 3 3 3 4 5 5 6 7 7 8 9 9 9 10 11 12 13 13 13 12 12 12 12 12 13 13 13 13 12 11 11 11 11 12 15 17 18 20 21 21 23 24 23 23 23 22
15 18 21 23 24 24 24 24 22 19 16 13 11 9 8 7 6 5 5 6 8 10 10 11 11 10 8 7 6 6 5 4 3 2 2 2 2 3 4 3 2 2 2 2 3 4 4 5 6 7 7 7 7 8 10 10 11 12 11 11 10 11 11 11 12 13 12 12 12 13 12 13 14 15 17 18 19 21 21 22 23 21 20 19 18
15 19 22 25 27 28 28 27 24 20 17 15 13 11 10 10 8 6 5 5 6 8 9 9 9 9 7 7 6 6 5 4 4 3 3 2 1 1 3 4 4 4 3 3 2 2 2 2 3 4 5 6 6 6 7 8 9 10 10 10 10 11 11 11 12 13 12 12 12 13 13 14 15 15 15 16 18 20 21 21 20 19 18 17 17
14 18 22 27 30 30 28 27 25 21 19 16 14 14 13 12 9 7 4 4 5 6 7 8 8 8 7 6 6 6 5 5 5 5 5 4 3 2 1 2 3 4 4 4 4 4 3 3 2 3 2 3 3 4 5 5 6 7 8 9 10 10 11 11 12 12 13 13 13 13 13 14 14 13 12 13 15 16 16 16 17 18 18 18 18
Wind_Direction
206 197 181 180 186 186 176 172 173 173 177 183 190 196 206 216 225 230 234 243 242 237 229 218 208 194 187 185 179 175 169 165 170 176 180 198 207 184 176 176 177 173 172 175 176 175 173 170 168 164 160 160 160 156 151 149 146 141 143 140 133 126 120 110 100 95 92 90 87 83 78 72 68 65 62 60 56 54 54 54 54 54 53 53 54
212 206 187 180 187 190 179 173 173 175 179 183 188 193 201 210 218 224 232 244 241 234 227 215 205 190 185 187 184 188 184 178 175 155 170 189 203 192 183 181 180 177 175 177 178 178 176 173 171 168 166 165 164 161 156 153 150 147 146 143 136 129 123 113 105 100 97 93 89 86 82 76 70 66 62 59 57 55 54 54 54 55 54 53 53
200 207 190 180 186 190 179 173 174 176 180 181 185 189 196 204 212 220 231 241 237 230 224 213 202 190 186 190 189 191 192 185 175 144 157 180 197 196 189 186 183 181 178 179 180 180 179 177 175 173 171 170 169 165 161 158 155 151 149 146 140 134 127 118 111 107 102 96 91 87 83 79 74 68 63 60 57 55 54 53 54 54 55 54 53
187 191 188 182 186 189 178 173 176 177 179 181 184 186 193 200 209 218 230 236 232 228 222 210 200 194 190 190 189 192 193 185 178 158 155 172 191 198 195 191 186 184 182 182 182 182 182 181 179 178 176 175 174 171 166 164 160 155 153 150 144 138 132 124 119 114 107 101 93 86 83 81 77 71 65 61 58 56 55 53 52 53 54 54 53
191 185 187 186 191 189 176 174 177 178 181 181 181 183 191 200 208 218 228 232 228 225 217 206 199 196 193 190 190 194 192 184 185 180 169 171 185 197 199 195 191 188 186 185 185 185 185 185 184 183 181 179 179 177 172 168 165 160 157 154 149 142 137 131 126 121 114 106 95 86 82 80 78 73 66 61 59 56 55 53 52 52 53 53 53
199 191 189 190 196 189 177 177 178 179 180 178 178 182 192 200 207 218 225 224 222 219 209 201 200 199 196 192 194 197 197 195 196 197 183 174 184 197 201 200 196 192 189 187 188 188 188 189 188 187 185 184 183 182 178 174 170 166 162 159 154 147 143 138 133 129 122 111 100 89 82 80 79 76 70 62 59 57 56 54 52 52 52 52 52
204 196 194 195 200 195 182 177 178 177 176 176 178 183 192 201 207 216 219 217 213 209 204 201 201 202 200 198 202 205 206 208 206 209 197 185 189 200 205 205 201 196 193 190 190 191 191 192 192 190 189 188 187 186 184 180 176 172 167 165 160 152 148 147 142 137 130 118 105 93 86 81 78 78 74 65 58 57 56 55 53 52 51 51 51
211 205 199 197 203 203 190 176 175 175 175 174 176 182 190 199 206 211 211 209 207 204 202 202 202 205 205 206 211 216 220 221 218 219 212 202 200 203 209 208 205 201 197 194 193 194 194 195 195 194 193 192 191 190 189 185 182 179 174 170 166 158 154 156 154 146 139 127 114 100 90 85 78 74 75 69 60 56 55 55 54 52 51 50 49
224 217 207 202 206 203 191 177 173 173 173 173 173 179 188 199 204 204 203 200 200 200 201 203 204 206 208 212 218 226 232 234 230 227 221 215 212 210 210 208 207 205 201 198 197 197 197 198 198 197 197 196 195 194 193 191 188 185 182 177 172 164 159 164 165 157 151 139 128 115 97 87 80 72 71 70 62 56 55 53 53 53 51 51 49
231 225 215 208 207 197 183 172 168 171 171 171 172 176 187 197 201 198 196 196 196 197 199 204 207 210 213 219 226 233 239 243 242 239 230 221 219 218 213 207 208 207 204 203 201 201 201 201 202 201 200 200 200 198 197 196 195 192 188 184 179 171 166 171 174 167 161 153 143 134 111 88 80 74 69 69 65 57 54 52 52 52 52 51 49
233 228 222 211 211 198 175 167 165 169 170 168 169 175 187 195 199 196 193 193 195 199 202 207 215 221 226 229 233 238 244 247 247 245 237 228 226 225 219 211 209 208 206 205 205 204 203 203 205 204 203 204 204 203 202 201 200 198 195 191 186 178 176 180 181 177 174 170 160 151 136 96 82 76 69 67 66 60 54 51 50 50 51 50 49
237 230 225 210 210 203 175 172 168 167 168 164 166 174 188 197 200 195 192 194 199 206 211 215 222 229 233 235 237 242 247 249 248 244 237 233 230 229 226 219 212 210 208 207 207 207 205 205 207 207 206 207 207 207 207 205 205 204 201 197 192 187 186 187 187 186 185 187 180 171 169 129 91 78 70 65 65 62 56 51 48 48 49 49 48
246 234 221 204 200 197 180 174 165 162 165 160 168 180 190 197 200 195 191 196 202 210 215 220 224 228 232 235 240 245 249 250 249 241 235 232 230 229 230 228 219 213 211 210 209 209 208 207 209 210 209 209 210 210 210 210 209 208 206 203 198 195 194 194 194 194 191 193 194 189 186 183 128 89 74 64 62 61 57 52 48 46 47 47 47
251 228 208 197 189 185 171 163 159 159 163 163 176 186 191 195 194 190 191 195 202 210 216 221 222 224 229 235 242 246 248 250 248 240 235 233 230 231 231 231 226 220 216 214 212 212 210 208 209 212 212 212 213 212 213 213 212 212 210 208 203 201 202 200 201 201 197 195 199 201 198 202 188 119 84 65 56 57 55 51 48 45 45 45 45
226 210 201 191 177 169 161 158 163 168 167 172 181 186 188 186 185 186 192 197 202 209 215 218 217 220 229 237 242 244 248 249 248 240 235 234 232 232 233 232 230 227 223 219 216 215 213 210 210 212 214 214 216 216 216 216 215 215 213 211 207 206 208 208 207 207 204 198 200 209 211 209 204 174 115 71 48 48 49 45 43 42 42 42 43
202 207 200 185 173 166 166 169 186 196 182 179 181 182 178 176 182 189 194 196 199 205 211 215 214 221 230 239 244 244 247 248 246 238 234 230 230 231 232 233 232 231 229 224 219 218 217 214 212 213 215 216 218 219 219 219 219 218 217 215 211 209 212 214 214 212 210 204 200 208 217 217 214 206 180 83 35 35 41 39 36 36 37 38 39
207 209 195 184 180 171 174 188 203 203 185 179 178 173 172 175 184 189 193 194 197 205 215 222 224 232 238 244 248 249 249 247 242 235 230 226 227 229 229 232 234 235 235 230 224 222 221 220 218 216 217 218 220 221 221 222 223 222 220 218 215 212 214 217 218 218 215 211 205 208 216 220 221 221 222 245 349 7 25 29 30 29 29 31 33
190 188 186 185 183 177 183 195 200 194 179 177 174 168 171 177 184 189 193 193 200 214 226 233 237 241 246 249 251 251 249 244 235 226 222 221 224 226 227 230 234 237 239 238 233 228 226 225 224 222 221 221 222 223 224 225 226 226 225 221 218 216 216 218 221 222 221 218 213 211 217 221 224 227 232 253 280 317 351 8 19 22 22 24 26
176 175 183 185 180 180 181 183 185 178 174 175 171 171 175 179 187 192 194 199 212 226 234 235 239 242 246 250 251 250 247 241 233 224 217 216 219 223 226 230 234 239 240 241 238 234 231 230 230 229 226 225 225 226 226 227 229 229 228 226 221 220 220 220 222 224 225 224 220 218 221 224 227 230 236 250 264 284 309 330 356 13 15 16 19
177 174 183 183 172 168 165 167 171 172 173 173 173 175 177 185 195 199 202 214 226 232 235 236 239 242 245 247 247 247 245 241 234 226 220 217 218 222 227 231 235 237 238 238 236 234 232 231 230 229 228 228 227 227 228 228 230 231 231 229 225 224 223 222 224 226 228 228 227 224 226 229 231 235 240 249 259 272 287 300 318 350 6 8 12
179 176 181 177 163 156 157 166 172 175 178 176 178 178 185 201 206 210 214 222 230 233 234 237 243 245 247 246 244 243 242 240 235 227 222 220 220 223 228 233 236 236 237 237 235 233 230 230 229 228 228 228 228 228 229 230 232 232 233 232 228 227 227 225 225 228 230 231 231 230 230 233 235 240 244 248 255 265 275 282 293 312 342 355 1
179 178 178 169 161 157 159 172 181 185 186 180 176 175 195 212 216 221 222 225 227 232 235 239 244 245 246 245 243 242 239 238 233 228 226 225 226 228 230 233 236 237 238 239 239 237 235 234 233 232 229 228 228 228 229 231 233 234 234 234 231 229 229 228 227 228 231 233 234 234 234 237 239 242 246 250 253 260 268 272 278 285 298 321 340
185 185 183 173 165 161 160 167 177 183 184 176 169 174 197 215 228 234 232 233 233 237 241 243 245 246 245 244 245 243 242 241 236 233 231 230 231 231 232 234 236 237 238 240 243 245 246 246 244 241 237 233 231 229 229 230 233 235 235 235 233 231 231 230 229 229 230 233 235 236 237 239 241 243 247 251 253 257 262 265 269 272 277 285 304
190 188 184 172 163 160 157 162 171 175 177 168 163 179 207 228 243 250 244 241 243 243 246 248 248 247 246 246 246 245 245 245 242 239 238 238 238 235 233 235 236 237 238 241 246 252 255 255 253 250 248 243 237 233 231 230 232 235 235 236 235 232 231 231 231 230 230 232 235 237 238 240 241 243 246 250 253 255 258 260 263 265 267 268 274
189 184 170 156 154 153 147 155 166 164 166 166 169 193 221 242 253 257 253 248 249 250 251 251 250 248 247 248 249 248 248 247 244 242 244 244 243 241 237 235 236 238 239 245 252 256 256 253 251 251 252 253 247 240 235 233 232 235 237 238 237 233 231 231 232 231 230 231 234 236 238 239 241 243 245 247 250 252 254 256 259 261 262 263 265
190 178 154 144 145 139 130 140 154 150 162 176 183 211 231 249 261 263 260 255 254 255 255 253 252 252 251 253 253 253 253 252 246 243 247 248 244 243 242 239 239 240 243 250 254 253 252 250 247 246 247 249 248 244 239 236 233 235 239 240 241 237 234 232 233 233 232 231 233 235 237 239 240 242 244 246 247 248 251 253 256 259 260 260 261
179 157 141 141 143 134 125 128 133 128 170 216 211 240 254 264 269 270 269 263 261 260 260 257 255 255 254 255 255 256 258 257 250 246 251 250 246 243 241 240 238 240 243 246 248 248 249 249 248 245 243 240 234 234 236 235 233 235 240 243 245 242 239 236 235 235 235 233 233 235 237 239 240 241 243 245 247 248 249 251 252 255 256 257 258
168 151 139 141 144 138 132 127 130 138 184 234 235 259 269 272 272 273 274 271 268 267 265 262 257 255 255 254 255 258 261 258 254 257 259 252 247 238 231 232 233 236 237 239 245 247 246 246 247 243 242 236 219 212 219 224 228 233 238 243 245 245 242 240 238 237 237 236 234 234 236 238 239 240 241 243 245 247 248 249 250 251 252 252 254
163 157 154 157 153 146 137 120 119 153 205 224 223 254 263 271 272 273 277 277 276 272 268 264 259 256 254 254 257 260 261 258 257 260 257 251 244 231 224 226 228 230 230 233 242 246 244 241 241 240 241 242 223 199 205 215 220 227 234 239 243 245 244 243 241 239 239 238 236 235 236 237 239 240 240 242 243 245 247 248 249 249 249 249 250
151 156 169 172 165 153 131 110 118 186 197 189 181 234 259 274 277 280 281 280 279 275 270 265 262 261 257 256 259 261 261 259 257 255 250 244 235 226 225 225 224 224 225 227 232 238 240 236 235 237 240 247 237 209 201 211 215 220 228 235 242 246 246 243 241 239 239 239 238 236 236 236 238 240 241 241 242 243 244 246 248 248 248 248 248
156 160 167 172 176 164 127 119 163 185 167 150 153 212 275 292 291 291 286 281 278 274 271 267 265 265 263 261 261 262 261 257 253 249 244 236 232 231 227 223 224 225 225 225 225 230 235 234 234 237 240 247 249 237 221 221 222 221 223 231 241 248 250 248 242 239 239 240 240 239 237 236 237 238 240 241 240 241 243 245 247 248 248 249 249
162 160 154 158 171 166 148 159 174 165 149 143 136 116 349 323 318 310 298 290 283 276 272 268 265 264 264 263 263 262 257 252 249 244 239 235 238 241 232 223 224 227 228 227 226 228 233 237 241 244 247 250 254 252 239 233 234 235 232 232 239 246 250 251 248 243 241 240 240 240 240 238 237 238 240 241 240 239 240 242 244 247 247 247 248
156 155 151 149 154 154 155 161 164 164 159 145 121 97 64 32 11 348 325 307 292 281 274 269 264 262 262 262 262 260 253 250 248 243 239 238 242 246 241 233 230 227 227 228 228 230 234 240 246 251 253 256 258 258 253 248 245 244 245 244 247 250 249 250 249 246 243 242 241 240 241 241 237 237 240 242 242 240 237 237 240 243 244 244 244
161 156 153 153 155 151 149 158 167 167 155 136 113 94 72 51 31 13 352 329 307 292 282 273 267 262 260 261 261 260 256 251 249 245 243 242 243 245 245 244 242 236 231 231 230 230 234 241 248 254 257 259 259 260 261 260 253 249 251 250 251 256 255 252 251 249 246 243 242 240 239 241 238 233 236 240 241 241 238 235 236 239 241 240 239
162 160 158 158 156 146 151 165 167 158 145 128 107 90 71 51 33 21 7 348 326 307 292 281 272 264 259 260 264 264 260 253 249 248 247 246 246 247 249 250 249 244 238 237 236 233 234 241 248 253 257 259 259 259 261 263 261 257 259 258 256 260 263 261 257 253 250 246 246 242 236 240 240 232 231 234 237 239 238 236 234 235 237 237 235
169 174 163 155 156 158 168 169 160 151 143 125 108 92 71 52 37 26 14 3 346 325 304 289 277 268 261 260 265 265 262 256 253 252 250 250 251 253 256 255 251 247 245 246 246 242 237 238 246 250 253 255 257 257 259 265 267 265 266 266 265 267 268 268 265 259 255 252 250 246 240 239 240 235 230 229 232 235 236 235 233 232 233 234 233
171 169 159 158 171 178 179 167 157 153 145 132 119 97 73 53 39 30 21 13 3 348 325 298 280 271 263 257 260 262 261 258 256 255 254 254 256 258 260 260 256 251 249 251 253 248 240 239 243 247 250 253 256 257 258 265 267 266 268 271 271 273 272 269 267 263 257 253 251 248 243 239 239 237 233 229 228 230 232 234 234 233 233 233 233
172 170 164 170 182 189 189 174 164 159 154 149 133 106 75 53 40 33 25 20 13 3 347 317 287 271 264 258 255 258 260 261 260 257 256 258 260 261 264 265 263 258 254 254 254 250 246 244 243 245 250 253 256 259 261 264 266 266 266 270 274 276 277 272 268 264 255 249 249 247 243 239 237 238 236 233 231 230 230 230 233 235 235 235 234
180 181 169 171 187 196 198 188 175 168 165 159 136 116 81 54 38 32 27 23 20 13 2 343 317 292 279 270 262 258 259 261 263 262 261 261 262 264 268 269 267 263 262 260 258 255 253 249 243 243 247 252 257 262 266 265 266 266 264 268 273 277 279 279 276 270 258 245 246 248 244 240 238 239 238 235 234 235 234 231 231 235 238 238 237
189 192 176 181 195 200 204 198 184 175 170 161 144 129 86 50 36 29 25 24 23 18 10 357 343 327 311 294 278 268 263 262 263 264 265 264 264 266 268 268 266 265 266 266 262 260 259 255 249 246 247 252 259 263 266 266 265 264 263 266 270 272 278 281 280 273 263 246 242 247 247 242 238 236 237 235 233 235 236 234 233 235 238 240 241
193 196 188 193 200 202 208 202 189 184 175 168 167 150 79 42 36 27 22 23 24 21 16 6 355 343 333 319 300 284 271 263 260 260 262 264 266 267 268 267 267 266 268 269 267 263 261 259 256 254 253 255 261 264 265 265 264 262 260 262 264 266 273 278 278 271 262 250 241 239 243 242 237 234 235 237 236 236 237 237 237 237 238 240 241
194 197 199 204 205 206 208 201 193 192 187 187 190 177 57 36 31 24 20 22 23 23 19 13 6 355 340 324 309 294 281 271 264 260 258 260 263 265 267 269 270 271 272 272 270 266 262 259 257 257 257 257 260 264 264 263 263 261 258 258 260 262 267 272 276 273 265 257 247 239 240 238 235 235 234 234 236 239 240 239 238 237 235 236 238
202 200 202 206 207 208 208 202 197 198 200 207 207 189 45 32 26 20 17 17 20 23 21 17 14 8 355 343 331 305 289 284 278 273 267 264 264 265 268 270 271 272 273 272 268 262 257 255 253 253 254 254 255 257 258 258 259 259 257 255 255 257 261 265 272 277 274 268 256 245 244 242 239 243 243 237 233 235 238 236 234 234 232 229 229
209 205 205 207 208 210 209 203 203 205 207 214 215 201 32 26 23 15 12 11 14 19 19 15 14 15 11 3 358 341 309 290 280 278 275 271 268 267 269 271 272 272 271 269 266 260 254 249 247 246 248 249 249 248 250 253 254 255 254 251 252 253 257 261 265 271 274 275 266 251 246 245 247 251 253 250 240 236 238 237 233 235 237 232 226
211 209 209 209 210 211 208 205 209 210 209 217 218 205 271 11 14 7 7 7 7 14 17 11 10 14 15 10 3 354 331 300 277 269 268 270 271 270 272 273 275 274 271 267 262 257 252 248 244 243 243 243 244 244 246 248 249 249 250 250 251 253 255 257 261 263 266 272 273 259 246 242 247 252 253 252 248 241 241 242 239 240 248 249 240
214 212 211 212 215 216 211 209 215 214 211 217 220 218 235 330 357 355 1 3 4 12 15 9 6 8 11 10 5 0 348 320 288 271 262 262 265 268 274 279 280 277 271 265 258 255 253 250 247 244 243 242 242 242 242 243 243 246 250 252 252 252 253 254 256 257 259 266 271 267 253 241 244 253 255 254 252 246 244 246 243 238 246 253 253
221 218 215 215 220 221 217 218 221 217 213 215 222 229 236 266 312 342 357 358 2 12 15 7 3 3 6 7 4 2 357 342 311 281 264 258 259 265 274 280 285 281 272 265 259 255 251 249 249 248 247 246 244 242 241 240 241 244 248 251 251 251 251 251 251 251 256 264 270 273 268 253 248 251 254 256 254 248 245 248 247 241 240 243 247
226 223 221 222 224 224 222 223 223 220 215 215 221 229 237 257 286 327 351 354 357 9 13 6 359 358 0 2 4 3 359 354 338 302 274 262 255 257 262 267 273 277 273 265 257 250 244 243 246 248 248 249 247 242 239 238 239 241 244 245 245 245 248 247 245 247 254 264 273 280 282 275 263 255 253 255 255 254 252 254 257 253 246 242 241
226 228 229 229 227 225 224 224 224 222 216 213 221 229 239 256 279 311 338 349 352 1 9 5 357 352 354 1 6 4 3 6 4 354 334 297 258 245 240 239 240 239 248 250 250 251 245 245 247 247 248 249 250 248 243 239 237 239 243 244 241 240 244 245 242 243 249 259 269 277 281 279 271 262 259 259 261 264 266 266 265 259 256 254 248
221 228 231 230 228 224 223 222 223 224 218 215 224 233 242 254 269 289 318 344 346 354 5 2 352 347 351 1 10 12 16 26 31 33 35 40 45 233 227 222 217 212 210 205 205 220 225 237 245 247 249 248 249 251 250 247 242 241 243 242 240 240 241 243 241 240 243 249 256 262 267 271 271 268 266 265 265 268 270 273 274 273 273 272 268
219 225 227 228 225 218 215 218 221 224 222 219 226 236 243 249 256 270 299 340 340 347 1 359 347 344 352 4 17 24 27 36 43 47 49 53 61 72 150 201 204 204 204 202 199 196 191 190 199 209 222 229 229 230 235 238 239 241 242 240 238 236 236 236 236 237 239 241 244 247 249 255 260 262 265 265 263 263 266 271 275 277 277 276 276